Location: Colonia Mina de C?rbuni
(46.1667°N, 22.7167°E)
Time: 22:06:29
(UTC+00:00)

Tiros 1 - Pass Details

Date: 24 April 2024
Orbit: 624 x 657 km, 48.4° (Epoch: 20 May)

Event Time Altitude Azimuth Distance (km) Brightness Sun altitude
Rises 21:02:45 0° 232° (SW) 2,940 - -27.6°
Reaches altitude 10° 21:05:07 10° 228° (SW) 2,027 - -27.8°
Maximum altitude 21:09:39 53° 152° (SSE) 783 - -28.1°
Drops below altitude 10° 21:14:10 10° 75° (ENE) 2,014 - -28.4°
Sets 21:16:31 0° 71° (ENE) 2,919 - -28.5°
